Presure
108 108 142 139 106 148 134 150 117 122 106 153 178 125 155 103 126 176 128 149 185 159 101 90 90 96 167 128 98 117 187 175 182 185 167 108 140 136 162 99 126 150 132
108 97 156 152 126 94 127 167 146 108 148 108 164 100 96 127 151 145 153 144 152 181 110 171 103 139 84 152 95 174 125 152 181 168 187 133 129 163 109 171 162 109 122
143 104 152 146 137 101 87 132 143 120 149 142 152 148 97 100 142 159 115 89 109 159 94 141 84 93 126 141 142 167 174 173 180 182 146 189 187 110 158 132 116 106 108
147 144 96 116 108 143 109 145 144 131 140 113 135 122 95 118 121 125 160 85 97 153 108 90 109 132 143 155 178 135 131 169 169 179 187 195 185 189 185 120 171 130 110
145 101 93 143 143 97 122 159 140 151 125 143 145 165 146 146 120 93 152 94 83 158 94 124 114 114 103 137 158 192 190 156 186 170 181 195 183 175 174 184 183 111 170
135 97 95 98 102 151 154 150 157 149 126 129 125 140 140 144 142 130 87 99 121 153 89 107 129 97 98 136 197 140 137 144 101 113 171 180 183 187 169 113 184 136 174
111 97 104 114 123 156 151 142 147 139 142 146 149 96 103 143 137 144 146 95 85 121 123 97 164 97 140 144 146 164 147 163 159 117 171 158 174 167 183 169 124 110 200
127 123 154 145 86 145 153 143 113 118 149 149 142 151 149 141 99 102 95 102 102 147 93 156 94 95 89 152 117 154 158 96 160 171 147 188 153 173 176 173 161 191 124
148 148 96 84 150 151 153 103 128 144 126 126 142 94 135 102 107 148 93 145 96 148 104 142 89 96 89 89 154 168 174 156 141 172 161 157 143 138 169 178 175 163 171
134 147 150 88 122 97 93 149 143 146 95 145 112 97 147 149 147 138 127 96 140 144 88 88 91 147 90 150 94 98 92 88 155 170 96 163 168 175 162 167 156 121 185
106 138 150 134 136 133 143 141 120 92 95 146 121 116 143 145 144 74 136 120 120 146 148 79 144 89 112 90 155 118 130 106 122 95 96 142 123 164 167 165 164 163 150
147 144 133 133 136 119 94 95 107 143 146 149 143 141 136 137 137 144 136 117 146 146 145 89 89 82 91 90 87 93 147 131 147 123 144 96 96 153 157 161 159 162 166
121 137 111 77 126 136 136 97 139 140 141 142 144 143 142 140 94 126 115 88 144 74 141 106 90 137 90 130 96 135 132 139 148 139 124 148 145 155 101 159 151 122 128
108 127 131 97 101 135 126 134 136 136 140 136 142 134 133 146 150 124 129 83 91 93 148 82 136 81 140 137 99 137 113 132 141 136 141 136 105 97 148 151 153 147 119
119 120 117 131 132 132 134 155 141 134 138 132 139 152 140 145 157 145 146 108 141 139 121 132 133 116 87 86 89 88 134 138 134 88 107 146 149 137 147 146 151 151 152
158 120 120 124 122 169 126 130 126 117 124 129 131 133 135 123 131 147 142 136 106 135 176 174 142 89 91 92 91 135 150 121 88 84 96 110 112 135 96 147 101 133 152
181 155 149 149 112 101 93 126 154 92 91 92 91 89 79 79 81 84 136 117 121 151 93 94 124 85 136 85 86 103 104 115 88 132 134 142 139 142 145 141 147 149 148
82 125 102 119 89 84 85 84 83 88 91 90 88 87 82 83 86 84 87 87 85 81 154 110 109 93 90 81 97 85 95 116 141 149 119 194 136 140 155 135 143 135 121
84 113 145 126 82 82 80 81 86 88 87 84 94 83 84 84 89 90 92 94 89 90 84 83 97 97 98 92 101 130 153 138 116 102 103 104 106 150 126 169 133 140 137
106 97 82 89 108 87 85 87 82 82 97 89 87 89 126 114 159 139 87 91 94 166 83 98 94 97 95 91 101 127 145 156 148 151 190 165 204 157 149 148 160 149 130
137 80 136 87 83 82 87 83 90 91 83 86 127 66 184 159 150 154 133 82 236 76 186 238 241 245 208 218 160 148 235 175 234 125 126 129 127 147 150 147 154 148 125
205 96 94 83 130 204 224 208 197 115 75 160 225 74 184 230 227 224 186 253 321 322 323 252 241 252 246 228 228 229 207 147 209 138 157 159 233 232 222 219 227 224 175
215 193 189 220 211 159 186 157 254 238 143 229 231 225 284 329 289 293 287 282 281 278 277 276 276 275 274 278 283 286 244 182 256 259 255 236 223 188 209 195 293 276 175
216 216 213 222 248 248 246 229 234 250 263 286 308 284 267 227 228 223 222 223 269 280 281 283 281 311 299 303 309 301 279 245 307 267 258 258 258 262 255 251 253 261 263
211 207 245 244 257 259 260 256 253 251 228 214 207 195 204 205 237 268 268 274 266 275 270 286 299 303 268 281 283 284 288 293 299 298 302 308 314 245 243 245 249 247 242
255 261 263 263 265 264 236 220 207 203 194 197 206 268 263 264 254 256 254 243 251 287 248 261 291 294 272 273 260 267 269 272 269 269 275 286 285 283 287 289 289 262 262
Wind_Speed
16 13 29 30 12 26 29 25 16 17 8 26 28 11 20 8 11 19 14 17 19 18 7 7 9 13 13 11 17 16 21 20 21 22 21 21 18 18 22 18 14 17 13
17 9 27 28 28 10 27 24 24 11 25 13 26 13 11 14 19 19 16 18 17 20 9 20 14 14 13 12 21 18 18 19 21 22 23 22 19 22 21 26 25 20 15
31 15 31 32 31 18 10 31 26 21 24 24 28 25 13 12 22 23 15 4 11 16 10 14 10 18 17 16 16 21 22 21 23 24 22 27 27 23 23 22 19 22 21
33 33 13 19 16 30 13 32 32 25 27 17 23 20 13 15 15 19 25 4 10 21 13 12 14 19 21 23 26 19 18 23 22 24 28 30 27 29 28 23 28 25 22
34 16 13 35 35 12 28 30 34 30 22 28 29 29 27 25 20 9 25 9 9 25 13 17 20 18 18 20 23 29 28 22 26 23 25 28 28 24 29 29 30 25 30
36 17 16 15 14 37 34 33 31 32 26 27 25 29 27 29 27 22 8 14 22 26 14 18 25 17 19 23 31 25 24 23 25 24 25 26 25 28 27 23 31 28 30
26 19 18 21 32 37 36 32 36 37 35 35 32 15 18 32 28 31 29 14 13 25 21 16 30 14 24 27 27 26 26 26 26 26 27 26 27 28 30 29 28 27 35
35 30 39 38 17 33 38 33 19 24 37 37 35 34 35 34 18 20 16 18 20 28 14 31 15 12 13 28 20 27 28 22 28 31 27 35 28 30 30 29 28 33 31
44 42 20 19 39 39 39 23 30 39 35 31 37 20 35 21 23 37 16 35 20 37 24 30 14 16 16 18 32 35 36 29 26 33 29 29 31 29 30 33 33 32 33
43 43 43 21 29 19 22 41 41 40 21 40 27 22 40 39 38 38 33 21 36 36 16 17 19 34 19 34 23 25 25 24 33 36 27 32 32 33 32 32 33 37 35
31 44 46 38 41 38 43 43 35 23 23 42 33 32 42 43 41 14 41 31 29 40 38 18 35 21 28 26 37 31 34 28 32 30 30 31 31 34 35 36 37 37 36
49 48 44 43 45 37 23 24 30 45 46 48 47 47 47 46 45 45 42 35 44 43 40 23 23 21 26 27 24 26 38 35 38 31 34 34 35 37 37 39 38 40 40
43 49 38 19 45 48 47 24 48 48 48 49 49 50 51 48 27 40 35 25 46 17 45 31 27 42 29 36 36 38 38 39 42 39 37 41 36 41 33 41 42 41 39
38 50 51 32 33 51 48 50 50 50 52 51 53 51 50 54 55 42 46 24 28 32 48 28 44 26 45 44 37 41 36 41 44 42 42 41 39 37 42 42 42 44 43
50 49 46 54 54 54 54 60 57 53 55 53 57 58 55 56 59 56 56 40 53 52 45 48 47 43 34 31 37 35 45 46 46 37 42 47 48 43 47 46 48 48 47
64 53 50 52 51 65 54 56 53 43 50 55 56 57 57 51 54 59 59 57 42 54 65 64 55 41 44 44 39 49 54 48 34 33 42 43 46 50 42 53 42 46 52
67 66 68 68 44 36 27 55 67 25 26 26 24 26 29 30 32 36 60 44 46 63 43 40 52 34 57 29 27 48 41 51 35 53 53 54 55 56 57 56 58 56 54
23 64 44 53 31 24 26 24 23 26 29 29 29 33 36 36 40 37 40 39 35 29 67 49 50 50 46 30 56 37 45 55 60 62 50 77 56 58 60 59 59 59 51
31 49 76 64 30 29 25 27 33 34 34 35 40 39 41 41 47 49 51 53 45 46 34 34 57 57 58 48 60 65 68 66 59 61 62 61 63 65 59 68 61 62 63
51 47 36 43 55 40 38 42 38 38 47 46 49 51 66 62 80 70 37 52 56 80 41 57 58 60 60 57 63 67 72 73 75 72 86 74 89 72 70 69 68 66 63
80 36 80 47 43 42 48 43 50 54 46 49 72 21 89 84 78 81 68 37 89 34 74 94 95 95 87 89 77 74 89 81 89 67 67 67 66 72 73 71 71 71 66
69 40 50 49 77 74 69 75 79 43 30 81 78 33 85 84 85 86 87 84 74 73 72 93 95 88 88 93 91 91 87 76 87 74 75 76 89 91 88 88 90 89 79
65 71 75 64 64 88 79 53 72 72 53 77 78 78 69 62 63 61 64 68 70 72 73 73 76 76 78 80 80 80 79 74 87 87 87 96 92 86 92 87 86 90 78
65 63 63 65 68 69 68 66 69 70 72 67 54 59 64 70 72 74 75 77 66 64 63 62 61 59 57 55 52 57 71 86 61 77 86 87 88 87 90 90 89 86 87
61 61 68 68 67 67 65 63 63 65 65 66 68 74 74 78 72 54 54 54 57 58 55 55 55 54 55 52 53 52 52 53 52 50 49 53 56 90 91 91 91 88 88
65 65 64 63 62 62 58 60 63 65 70 72 73 48 49 49 54 55 54 58 58 50 52 52 47 49 52 52 56 53 52 51 51 50 49 52 57 64 66 71 75 86 87
Wind_Direction
253 257 252 255 243 265 267 271 268 272 234 290 298 263 297 210 276 302 287 296 288 303 323 353 339 326 293 318 339 303 267 263 269 267 265 311 287 295 267 334 255 270 258
258 245 258 258 267 215 274 278 267 262 279 261 292 208 201 275 283 283 286 297 299 287 328 297 291 285 357 294 336 284 295 285 272 284 270 288 272 268 317 267 270 323 281
249 238 260 255 256 246 216 274 264 274 275 279 284 288 214 237 278 293 267 313 258 293 308 301 348 332 284 287 289 292 289 288 283 279 301 279 270 303 268 273 286 318 317
253 254 261 259 252 259 257 264 268 273 273 264 282 277 240 275 271 271 292 313 281 289 303 320 291 314 287 286 290 290 301 288 286 283 282 279 276 276 272 282 269 296 312
251 243 251 257 260 263 264 268 266 266 275 275 279 283 286 286 272 273 291 291 326 290 316 304 299 298 303 292 288 284 285 286 281 285 281 275 278 276 280 273 272 293 272
250 244 248 258 265 263 262 263 266 265 276 281 272 279 282 283 281 274 289 274 283 290 306 292 285 301 306 295 285 291 292 287 324 313 283 282 278 277 274 310 274 281 268
247 246 251 257 258 267 263 262 261 264 266 267 272 263 271 280 280 284 287 278 303 284 286 293 284 303 286 287 285 281 286 280 281 305 283 279 282 278 276 275 293 297 272
254 255 261 261 229 267 266 264 254 261 268 269 269 273 275 279 266 272 262 268 278 292 282 284 293 305 322 283 302 283 280 326 279 284 277 283 275 279 277 273 275 272 289
257 259 238 225 263 266 268 255 263 265 271 268 269 266 275 267 271 281 279 285 272 291 279 288 297 300 307 310 285 281 280 281 287 283 276 275 275 272 277 278 275 272 271
254 258 259 236 252 237 240 267 268 269 261 270 267 268 272 273 272 278 278 266 283 282 274 287 302 288 307 288 311 307 312 321 283 280 320 279 277 277 273 273 269 281 272
245 258 260 257 260 259 262 264 260 249 255 269 266 267 273 274 275 307 280 276 275 280 280 302 281 302 293 307 287 297 294 306 296 312 316 283 300 278 275 274 273 272 267
256 256 256 257 258 259 248 251 259 268 270 272 271 273 274 274 274 274 275 272 278 278 279 286 294 314 301 306 313 310 283 290 283 297 277 314 316 281 276 275 272 273 271
253 256 256 263 263 260 262 258 265 267 268 269 269 269 271 271 282 274 276 282 275 305 278 285 293 279 302 280 296 278 282 284 279 282 293 282 274 279 309 275 276 278 268
256 255 257 257 260 260 264 263 263 265 268 268 268 270 272 270 272 276 276 288 294 295 274 296 275 299 276 276 294 275 287 279 278 281 276 282 300 307 275 271 271 266 283
255 257 258 258 258 260 261 265 262 264 264 269 268 271 271 271 272 273 275 279 274 275 278 273 273 280 292 293 291 295 275 272 277 303 296 273 271 272 270 269 269 268 268
258 259 260 259 261 268 262 263 265 271 270 270 270 271 271 272 273 274 272 273 280 275 278 280 276 284 287 288 290 277 276 281 297 297 296 288 289 276 300 270 295 275 265
264 260 260 261 264 262 264 267 268 267 265 267 270 271 265 269 269 272 274 279 281 274 275 280 282 287 281 288 290 288 280 281 291 275 274 271 270 269 268 271 270 267 267
260 262 256 263 263 265 266 264 265 270 275 272 270 266 263 266 268 269 269 272 282 292 276 275 274 283 291 289 286 295 293 278 276 276 280 274 271 269 268 273 269 275 277
265 260 259 266 266 266 262 270 275 275 275 268 273 264 263 267 270 271 270 268 273 276 292 302 275 278 281 289 283 278 274 277 276 286 288 289 288 271 275 271 269 267 271
262 266 271 260 266 266 269 270 271 271 268 266 266 269 275 273 280 278 280 277 279 278 281 279 290 284 288 291 284 279 277 273 276 275 272 271 270 271 272 271 267 268 270
263 261 267 263 265 266 263 264 261 259 264 267 274 263 276 279 279 281 281 288 273 264 272 274 275 276 276 275 276 277 273 275 272 273 274 271 270 270 270 269 268 268 273
272 264 259 257 267 275 278 276 275 280 289 276 274 284 277 276 277 277 281 280 284 282 279 277 277 276 275 276 275 274 273 274 271 273 272 273 270 268 265 264 266 266 265
277 272 272 277 275 271 274 282 284 275 277 276 276 277 285 291 288 288 285 284 282 282 281 280 278 277 274 273 271 270 269 274 269 269 266 269 266 272 269 267 263 263 264
276 279 279 281 285 284 282 275 279 284 288 289 291 291 289 286 286 285 283 282 287 288 288 287 284 282 279 281 286 282 276 270 273 269 267 266 266 266 266 267 267 266 266
279 277 283 282 285 287 287 286 285 285 283 282 283 279 279 278 288 290 291 293 291 293 294 293 290 284 280 278 282 284 286 287 282 278 274 275 271 267 266 265 265 266 265
281 282 283 285 286 287 283 281 279 280 278 278 279 295 293 296 294 295 296 296 298 298 297 294 291 287 284 282 281 281 283 283 280 279 281 276 273 271 267 265 265 265 266